Time,TemperatureF,DewpointF,PressureIn,WindDirection,WindDirectionDegrees,WindSpeedMPH,WindSpeedGustMPH,Humidity,HourlyPrecipIn,Conditions,Clouds,dailyrainin,SoftwareType,DateUTC
2013-05-02 00:00:00,68.5,56.3,30.12,South,180,0.0,0.0,65,0.00,,OVC120,0.00,VWS V14.00,2013-05-02 04:00:00,
2013-05-02 00:01:00,66.2,56.9,30.12,South,180,0.0,0.0,72,0.00,,CLR,0.00,VWS V14.00,2013-05-02 04:01:00,
2013-05-02 00:02:00,66.1,56.8,30.12,South,181,0.0,0.0,72,0.00,,CLR,0.00,VWS V14.00,2013-05-02 04:02:00,
2013-05-02 00:07:00,65.9,57.0,30.12,South,180,0.0,0.0,73,0.00,,CLR,0.00,VWS V14.00,2013-05-02 04:07:00,
2013-05-02 00:13:00,65.8,57.3,30.12,South,180,0.0,0.0,74,0.00,,CLR,0.00,VWS V14.00,2013-05-02 04:13:00,
2013-05-02 00:18:00,65.8,57.3,30.12,South,181,0.0,0.0,74,0.00,,CLR,0.00,VWS V14.00,2013-05-02 04:18:00,
2013-05-02 00:23:00,65.6,57.1,30.12,South,180,0.0,0.0,74,0.00,,CLR,0.00,VWS V14.00,2013-05-02 04:23:00,
2013-05-02 00:28:00,65.5,57.0,30.12,South,181,0.0,0.0,74,0.00,,CLR,0.00,VWS V14.00,2013-05-02 04:28:00,
2013-05-02 00:30:00,65.5,57.0,30.12,South,181,0.0,0.0,74,0.00,,OVC110,0.00,VWS V14.00,2013-05-02 04:30:00,
2013-05-02 00:33:00,65.5,57.0,30.12,South,180,0.0,0.0,74,0.00,,CLR,0.00,VWS V14.00,2013-05-02 04:33:00,
2013-05-02 00:38:00,65.4,56.9,30.12,South,181,0.0,0.0,74,0.00,,CLR,0.00,VWS V14.00,2013-05-02 04:38:00,
2013-05-02 00:43:00,65.2,57.1,30.12,South,181,0.0,0.0,75,0.00,,CLR,0.00,VWS V14.00,2013-05-02 04:43:00,
2013-05-02 00:48:00,65.2,57.1,30.12,South,181,0.0,0.0,75,0.00,,CLR,0.00,VWS V14.00,2013-05-02 04:48:00,
2013-05-02 00:53:00,65.2,57.1,30.12,South,181,0.0,0.0,75,0.00,,CLR,0.00,VWS V14.00,2013-05-02 04:53:00,
2013-05-02 00:59:00,65.7,57.2,30.12,South,181,0.0,3.0,74,0.00,,CLR,0.00,VWS V14.00,2013-05-02 04:59:00,
2013-05-02 01:00:00,66.2,56.9,30.12,South,181,0.0,0.0,72,0.00,,OVC120,0.00,VWS V14.00,2013-05-02 05:00:00,
2013-05-02 01:04:00,66.3,57.4,30.12,South,181,0.0,4.0,73,0.00,,CLR,0.00,VWS V14.00,2013-05-02 05:04:00,
2013-05-02 01:09:00,66.7,57.4,30.12,South,181,0.0,4.0,72,0.00,,CLR,0.00,VWS V14.00,2013-05-02 05:09:00,
2013-05-02 01:14:00,66.9,57.2,30.12,South,182,0.0,4.0,71,0.00,,CLR,0.00,VWS V14.00,2013-05-02 05:14:00,
2013-05-02 01:19:00,67.1,57.4,30.12,South,179,0.0,4.0,71,0.00,,CLR,0.00,VWS V14.00,2013-05-02 05:19:00,
2013-05-02 01:24:00,67.3,57.6,30.12,South,178,0.0,4.0,71,0.00,,CLR,0.00,VWS V14.00,2013-05-02 05:24:00,
2013-05-02 01:29:00,67.3,57.6,30.12,South,176,0.0,4.0,71,0.00,,CLR,0.00,VWS V14.00,2013-05-02 05:29:00,
2013-05-02 01:30:00,65.5,57.0,30.12,South,181,0.0,0.0,74,0.00,,OVC120,0.00,VWS V14.00,2013-05-02 05:30:00,
2013-05-02 01:34:00,67.3,57.6,30.12,South,176,0.0,1.0,71,0.00,,CLR,0.00,VWS V14.00,2013-05-02 05:34:00,
2013-05-02 01:40:00,67.1,57.4,30.12,South,176,2.0,2.0,71,0.00,,CLR,0.00,VWS V14.00,2013-05-02 05:40:00,
2013-05-02 01:45:00,67.0,57.3,30.12,South,176,0.0,2.0,71,0.00,,CLR,0.00,VWS V14.00,2013-05-02 05:45:00,
2013-05-02 01:50:00,67.0,57.3,30.11,South,176,0.0,2.0,71,0.00,,CLR,0.00,VWS V14.00,2013-05-02 05:50:00,
2013-05-02 01:55:00,66.9,57.6,30.12,South,176,0.0,2.0,72,0.00,,CLR,0.00,VWS V14.00,2013-05-02 05:55:00,
2013-05-02 02:00:00,66.6,57.3,30.11,South,176,0.0,0.0,72,0.00,,CLR,0.00,VWS V14.00,2013-05-02 06:00:00,
2013-05-02 02:05:00,66.3,57.4,30.11,South,176,0.0,2.0,73,0.00,,CLR,0.00,VWS V14.00,2013-05-02 06:05:00,
2013-05-02 02:10:00,66.2,57.3,30.11,South,176,0.0,2.0,73,0.00,,CLR,0.00,VWS V14.00,2013-05-02 06:10:00,
2013-05-02 02:15:00,66.1,57.2,30.11,South,176,0.0,2.0,73,0.00,,CLR,0.00,VWS V14.00,2013-05-02 06:15:00,
2013-05-02 02:21:00,65.9,57.4,30.11,South,176,0.0,2.0,74,0.00,,CLR,0.00,VWS V14.00,2013-05-02 06:21:00,
2013-05-02 02:26:00,65.7,57.2,30.11,South,176,0.0,2.0,74,0.00,,CLR,0.00,VWS V14.00,2013-05-02 06:26:00,
2013-05-02 02:30:00,67.4,57.7,30.12,South,176,0.0,4.0,71,0.00,,OVC120,0.00,VWS V14.00,2013-05-02 06:30:00,
2013-05-02 02:31:00,65.4,57.3,30.11,South,176,0.0,0.0,75,0.00,,CLR,0.00,VWS V14.00,2013-05-02 06:31:00,
2013-05-02 02:36:00,65.3,57.2,30.11,South,176,0.0,2.0,75,0.00,,CLR,0.00,VWS V14.00,2013-05-02 06:36:00,
2013-05-02 02:41:00,65.3,57.2,30.11,South,176,0.0,2.0,75,0.00,,CLR,0.00,VWS V14.00,2013-05-02 06:41:00,
2013-05-02 02:46:00,65.2,57.5,30.11,South,176,0.0,3.0,76,0.00,,CLR,0.00,VWS V14.00,2013-05-02 06:46:00,
2013-05-02 02:51:00,65.1,57.4,30.11,South,176,0.0,3.0,76,0.00,,CLR,0.00,VWS V14.00,2013-05-02 06:51:00,
2013-05-02 02:56:00,64.9,57.2,30.11,South,176,0.0,4.0,76,0.00,,CLR,0.00,VWS V14.00,2013-05-02 06:56:00,
2013-05-02 03:00:00,66.6,57.3,30.11,South,176,0.0,2.0,72,0.00,,OVC120,0.00,VWS V14.00,2013-05-02 07:00:00,
2013-05-02 03:02:00,64.7,57.0,30.11,South,176,0.0,1.0,76,0.00,,CLR,0.00,VWS V14.00,2013-05-02 07:02:00,
2013-05-02 03:07:00,64.5,56.8,30.11,South,175,0.0,1.0,76,0.00,,CLR,0.00,VWS V14.00,2013-05-02 07:07:00,
2013-05-02 03:12:00,64.4,57.0,30.11,South,175,0.0,4.0,77,0.00,,CLR,0.00,VWS V14.00,2013-05-02 07:12:00,
2013-05-02 03:17:00,64.4,57.0,30.11,South,174,0.0,4.0,77,0.00,,CLR,0.00,VWS V14.00,2013-05-02 07:17:00,
2013-05-02 03:22:00,64.3,57.0,30.11,South,174,0.0,4.0,77,0.00,,CLR,0.00,VWS V14.00,2013-05-02 07:22:00,
2013-05-02 03:27:00,64.1,57.1,30.11,South,173,0.0,4.0,78,0.00,,CLR,0.00,VWS V14.00,2013-05-02 07:27:00,
2013-05-02 03:30:00,65.5,57.0,30.11,South,176,0.0,2.0,74,0.00,,OVC120,0.00,VWS V14.00,2013-05-02 07:30:00,
2013-05-02 03:32:00,64.0,57.0,30.11,South,173,1.0,1.0,78,0.00,,CLR,0.00,VWS V14.00,2013-05-02 07:32:00,
2013-05-02 03:37:00,63.9,56.9,30.11,South,173,0.0,2.0,78,0.00,,CLR,0.00,VWS V14.00,2013-05-02 07:37:00,
2013-05-02 03:43:00,63.7,56.7,30.11,South,171,3.0,3.0,78,0.00,,CLR,0.00,VWS V14.00,2013-05-02 07:43:00,
2013-05-02 03:48:00,63.7,57.1,30.11,South,171,0.0,3.0,79,0.00,,CLR,0.00,VWS V14.00,2013-05-02 07:48:00,
2013-05-02 03:53:00,63.5,56.9,30.11,South,171,0.0,3.0,79,0.00,,CLR,0.00,VWS V14.00,2013-05-02 07:53:00,
2013-05-02 03:58:00,63.4,56.8,30.11,South,171,0.0,3.0,79,0.00,,CLR,0.00,VWS V14.00,2013-05-02 07:58:00,
2013-05-02 04:00:00,64.8,57.1,30.11,South,176,0.0,4.0,76,0.00,,OVC120,0.00,VWS V14.00,2013-05-02 08:00:00,
2013-05-02 04:03:00,63.3,56.7,30.11,South,171,0.0,1.0,79,0.00,,CLR,0.00,VWS V14.00,2013-05-02 08:03:00,
2013-05-02 04:08:00,63.2,56.6,30.11,South,171,0.0,3.0,79,0.00,,CLR,0.00,VWS V14.00,2013-05-02 08:08:00,
2013-05-02 04:13:00,63.0,56.7,30.11,South,171,0.0,3.0,80,0.00,,CLR,0.00,VWS V14.00,2013-05-02 08:13:00,
2013-05-02 04:18:00,62.8,56.5,30.11,South,171,0.0,4.0,80,0.00,,CLR,0.00,VWS V14.00,2013-05-02 08:18:00,
2013-05-02 04:24:00,62.7,56.5,30.11,South,171,0.0,4.0,80,0.00,,CLR,0.00,VWS V14.00,2013-05-02 08:24:00,
2013-05-02 04:29:00,62.5,56.2,30.11,South,171,0.0,4.0,80,0.00,,CLR,0.00,VWS V14.00,2013-05-02 08:29:00,
2013-05-02 04:30:00,64.1,57.1,30.11,South,173,0.0,4.0,78,0.00,,OVC120,0.00,VWS V14.00,2013-05-02 08:30:00,
2013-05-02 04:34:00,62.3,56.1,30.11,South,171,0.0,0.0,80,0.00,,CLR,0.00,VWS V14.00,2013-05-02 08:34:00,
2013-05-02 04:39:00,62.1,55.9,30.11,South,171,0.0,0.0,80,0.00,,CLR,0.00,VWS V14.00,2013-05-02 08:39:00,
2013-05-02 04:44:00,61.9,55.7,30.11,South,171,0.0,0.0,80,0.00,,CLR,0.00,VWS V14.00,2013-05-02 08:44:00,
2013-05-02 04:49:00,61.7,55.8,30.11,South,171,0.0,0.0,81,0.00,,CLR,0.00,VWS V14.00,2013-05-02 08:49:00,
2013-05-02 04:54:00,61.5,55.6,30.11,South,171,0.0,0.0,81,0.00,,CLR,0.00,VWS V14.00,2013-05-02 08:54:00,
2013-05-02 04:59:00,61.3,55.4,30.11,South,171,0.0,0.0,81,0.00,,CLR,0.00,VWS V14.00,2013-05-02 08:59:00,
2013-05-02 05:00:00,63.4,56.8,30.11,South,171,0.0,3.0,79,0.00,,OVC120,0.00,VWS V14.00,2013-05-02 09:00:00,
2013-05-02 05:04:00,61.1,55.6,30.11,South,171,0.0,1.0,82,0.00,,CLR,0.00,VWS V14.00,2013-05-02 09:04:00,
2013-05-02 05:10:00,61.1,55.6,30.11,South,171,0.0,1.0,82,0.00,,CLR,0.00,VWS V14.00,2013-05-02 09:10:00,
2013-05-02 05:15:00,61.1,55.6,30.11,South,171,0.0,1.0,82,0.00,,CLR,0.00,VWS V14.00,2013-05-02 09:15:00,
2013-05-02 05:20:00,61.1,55.2,30.11,South,171,0.0,1.0,81,0.00,,CLR,0.00,VWS V14.00,2013-05-02 09:20:00,
2013-05-02 05:25:00,61.1,55.2,30.11,South,171,0.0,2.0,81,0.00,,CLR,0.00,VWS V14.00,2013-05-02 09:25:00,
2013-05-02 05:30:00,61.1,55.2,30.11,South,171,0.0,0.0,81,0.00,,CLR,0.00,VWS V14.00,2013-05-02 09:30:00,
2013-05-02 05:35:00,61.1,55.2,30.11,South,171,2.0,2.0,81,0.00,,CLR,0.00,VWS V14.00,2013-05-02 09:35:00,
2013-05-02 05:40:00,61.1,55.2,30.11,South,171,0.0,3.0,81,0.00,,CLR,0.00,VWS V14.00,2013-05-02 09:40:00,
2013-05-02 05:45:00,61.1,55.2,30.11,South,171,0.0,3.0,81,0.00,,CLR,0.00,VWS V14.00,2013-05-02 09:45:00,
2013-05-02 05:51:00,61.0,55.1,30.11,South,171,0.0,3.0,81,0.00,,CLR,0.00,VWS V14.00,2013-05-02 09:51:00,
2013-05-02 05:56:00,60.9,55.0,30.11,South,171,0.0,3.0,81,0.00,,CLR,0.00,VWS V14.00,2013-05-02 09:56:00,
2013-05-02 06:00:00,61.3,55.4,30.11,South,171,0.0,0.0,81,0.00,,OVC120,0.00,VWS V14.00,2013-05-02 10:00:00,
2013-05-02 06:01:00,60.9,55.0,30.11,South,171,0.0,0.0,81,0.00,,CLR,0.00,VWS V14.00,2013-05-02 10:01:00,
2013-05-02 06:06:00,60.8,54.9,30.11,South,171,0.0,0.0,81,0.00,,CLR,0.00,VWS V14.00,2013-05-02 10:06:00,
2013-05-02 06:11:00,60.8,54.9,30.11,South,171,0.0,2.0,81,0.00,,CLR,0.00,VWS V14.00,2013-05-02 10:11:00,
2013-05-02 06:16:00,60.6,54.8,30.11,South,171,0.0,2.0,81,0.00,,CLR,0.00,VWS V14.00,2013-05-02 10:16:00,
2013-05-02 06:21:00,60.4,54.5,30.11,South,171,0.0,2.0,81,0.00,,CLR,0.00,VWS V14.00,2013-05-02 10:21:00,
2013-05-02 06:26:00,60.2,54.4,30.11,South,171,0.0,2.0,81,0.00,,CLR,0.00,VWS V14.00,2013-05-02 10:26:00,
2013-05-02 06:30:00,61.1,55.2,30.11,South,171,0.0,2.0,81,0.00,,OVC120,0.00,VWS V14.00,2013-05-02 10:30:00,
2013-05-02 06:31:00,59.9,54.1,30.12,South,171,0.0,1.0,81,0.00,,CLR,0.00,VWS V14.00,2013-05-02 10:31:00,
2013-05-02 06:37:00,59.8,54.3,30.11,South,171,0.0,1.0,82,0.00,,CLR,0.00,VWS V14.00,2013-05-02 10:37:00,
2013-05-02 06:42:00,59.7,54.2,30.11,South,171,0.0,1.0,82,0.00,,CLR,0.00,VWS V14.00,2013-05-02 10:42:00,
2013-05-02 06:47:00,59.7,54.2,30.11,South,171,0.0,1.0,82,0.00,,CLR,0.00,VWS V14.00,2013-05-02 10:47:00,
2013-05-02 06:52:00,59.6,54.1,30.11,South,171,0.0,1.0,82,0.00,,CLR,0.00,VWS V14.00,2013-05-02 10:52:00,
2013-05-02 06:57:00,59.6,54.1,30.11,South,171,0.0,1.0,82,0.00,,CLR,0.00,VWS V14.00,2013-05-02 10:57:00,
2013-05-02 07:00:00,60.9,55.0,30.11,South,171,0.0,3.0,81,0.00,,OVC120,0.00,VWS V14.00,2013-05-02 11:00:00,
2013-05-02 07:02:00,59.5,54.0,30.12,South,171,0.0,0.0,82,0.00,,SCT220,0.00,VWS V14.00,2013-05-02 11:02:00,
2013-05-02 07:08:00,59.6,54.1,30.12,South,171,0.0,0.0,82,0.00,,SCT220,0.00,VWS V14.00,2013-05-02 11:08:00,
2013-05-02 07:13:00,59.6,54.1,30.12,South,171,0.0,0.0,82,0.00,,SCT220,0.00,VWS V14.00,2013-05-02 11:13:00,
2013-05-02 07:18:00,59.8,54.3,30.12,South,171,0.0,0.0,82,0.00,,SCT220,0.00,VWS V14.00,2013-05-02 11:18:00,
2013-05-02 07:23:00,60.1,54.6,30.12,South,171,0.0,3.0,82,0.00,,SCT220,0.00,VWS V14.00,2013-05-02 11:23:00,
2013-05-02 07:28:00,60.4,54.5,30.13,South,171,0.0,3.0,81,0.00,,SCT220,0.00,VWS V14.00,2013-05-02 11:28:00,
2013-05-02 07:30:00,60.0,54.2,30.11,South,171,0.0,2.0,81,0.00,,OVC120,0.00,VWS V14.00,2013-05-02 11:30:00,
2013-05-02 07:33:00,60.8,54.9,30.13,South,171,0.0,1.0,81,0.00,,SCT220,0.00,VWS V14.00,2013-05-02 11:33:00,
2013-05-02 07:38:00,61.4,55.2,30.13,South,171,0.0,2.0,80,0.00,,SCT220,0.00,VWS V14.00,2013-05-02 11:38:00,
2013-05-02 07:43:00,61.8,55.2,30.13,South,171,0.0,4.0,79,0.00,,SCT220,0.00,VWS V14.00,2013-05-02 11:43:00,
2013-05-02 07:49:00,62.2,55.3,30.14,South,171,3.0,4.0,78,0.00,,SCT220,0.00,VWS V14.00,2013-05-02 11:49:00,
2013-05-02 07:54:00,62.6,55.3,30.14,SSE,159,0.0,4.0,77,0.00,,SCT220,0.00,VWS V14.00,2013-05-02 11:54:00,
2013-05-02 07:59:00,62.9,55.2,30.14,SSE,161,1.0,5.0,76,0.00,,SCT220,0.00,VWS V14.00,2013-05-02 11:59:00,
2013-05-02 08:00:00,59.6,54.1,30.12,South,171,0.0,1.0,82,0.00,,OVC120,0.00,VWS V14.00,2013-05-02 12:00:00,
2013-05-02 08:04:00,63.2,55.5,30.14,SSE,161,0.0,3.0,76,0.00,,BKN220,0.00,VWS V14.00,2013-05-02 12:04:00,
2013-05-02 08:09:00,63.6,55.5,30.14,South,177,0.0,5.0,75,0.00,,BKN220,0.00,VWS V14.00,2013-05-02 12:09:00,
2013-05-02 08:14:00,63.9,55.5,30.14,South,177,1.0,5.0,74,0.00,,BKN220,0.00,VWS V14.00,2013-05-02 12:14:00,
2013-05-02 08:19:00,64.4,55.9,30.14,South,172,1.0,5.0,74,0.00,,BKN220,0.00,VWS V14.00,2013-05-02 12:19:00,
2013-05-02 08:24:00,64.7,55.5,30.14,SSE,163,0.0,5.0,72,0.00,,BKN220,0.00,VWS V14.00,2013-05-02 12:24:00,
2013-05-02 08:29:00,65.0,55.8,30.14,SSE,160,2.0,5.0,72,0.00,,BKN220,0.00,VWS V14.00,2013-05-02 12:29:00,
2013-05-02 08:30:00,60.5,54.7,30.13,South,171,0.0,3.0,81,0.00,,OVC120,0.00,VWS V14.00,2013-05-02 12:30:00,
2013-05-02 08:34:00,65.2,56.3,30.14,South,173,2.0,6.0,73,0.00,,BKN220,0.00,VWS V14.00,2013-05-02 12:34:00,
2013-05-02 08:40:00,65.4,56.2,30.14,SSE,168,2.0,6.0,72,0.00,,BKN220,0.00,VWS V14.00,2013-05-02 12:40:00,
2013-05-02 08:45:00,65.5,55.5,30.14,South,172,1.0,6.0,70,0.00,,BKN220,0.00,VWS V14.00,2013-05-02 12:45:00,
2013-05-02 08:50:00,65.8,56.2,30.14,South,174,3.0,6.0,71,0.00,,BKN220,0.00,VWS V14.00,2013-05-02 12:50:00,
2013-05-02 08:55:00,65.9,55.8,30.14,South,190,1.0,7.0,70,0.00,,BKN220,0.00,VWS V14.00,2013-05-02 12:55:00,
2013-05-02 09:00:00,66.3,56.2,30.14,SE,145,0.0,7.0,70,0.00,,BKN220,0.00,VWS V14.00,2013-05-02 13:00:00,
2013-05-02 09:05:00,66.8,56.7,30.14,SSE,150,2.0,3.0,70,0.00,,BKN220,0.00,VWS V14.00,2013-05-02 13:05:00,
2013-05-02 09:10:00,67.1,57.0,30.14,SSE,161,0.0,4.0,70,0.00,,BKN220,0.00,VWS V14.00,2013-05-02 13:10:00,
2013-05-02 09:15:00,67.5,57.4,30.14,South,178,2.0,5.0,70,0.00,,BKN220,0.00,VWS V14.00,2013-05-02 13:15:00,
2013-05-02 09:20:00,68.0,56.7,30.14,South,178,0.0,5.0,67,0.00,,BKN220,0.00,VWS V14.00,2013-05-02 13:20:00,
2013-05-02 09:25:00,68.3,56.5,30.14,South,178,3.0,5.0,66,0.00,,BKN220,0.00,VWS V14.00,2013-05-02 13:25:00,
2013-05-02 09:30:00,68.6,56.8,30.14,South,190,0.0,5.0,66,0.00,,BKN220,0.00,VWS V14.00,2013-05-02 13:30:00,
2013-05-02 09:36:00,68.9,56.7,30.14,South,169,4.0,5.0,65,0.00,,BKN220,0.00,VWS V14.00,2013-05-02 13:36:00,
2013-05-02 09:41:00,69.1,56.8,30.14,South,176,3.0,8.0,65,0.00,,BKN220,0.00,VWS V14.00,2013-05-02 13:41:00,
2013-05-02 09:46:00,69.3,57.0,30.14,South,176,0.0,8.0,65,0.00,,BKN220,0.00,VWS V14.00,2013-05-02 13:46:00,
2013-05-02 09:51:00,69.8,57.5,30.14,ESE,110,4.0,8.0,65,0.00,,BKN220,0.00,VWS V14.00,2013-05-02 13:51:00,
2013-05-02 09:56:00,70.0,57.3,30.14,South,179,2.0,8.0,64,0.00,,BKN220,0.00,VWS V14.00,2013-05-02 13:56:00,
2013-05-02 10:00:00,66.3,56.2,30.14,SE,145,0.0,7.0,70,0.00,,OVC120,0.00,VWS V14.00,2013-05-02 14:00:00,
2013-05-02 10:01:00,70.4,57.2,30.14,East,89,3.0,6.0,63,0.00,,BKN220,0.00,VWS V14.00,2013-05-02 14:01:00,
2013-05-02 10:06:00,71.0,58.2,30.14,East,90,0.0,6.0,64,0.00,,BKN220,0.00,VWS V14.00,2013-05-02 14:06:00,
2013-05-02 10:11:00,71.5,57.8,30.14,SW,215,0.0,6.0,62,0.00,,BKN220,0.00,VWS V14.00,2013-05-02 14:11:00,
2013-05-02 10:16:00,72.3,57.7,30.14,South,169,0.0,6.0,60,0.00,,BKN220,0.00,VWS V14.00,2013-05-02 14:16:00,
2013-05-02 10:21:00,72.5,57.8,30.13,SSE,155,0.0,6.0,60,0.00,,BKN220,0.00,VWS V14.00,2013-05-02 14:21:00,
2013-05-02 10:26:00,72.6,58.4,30.13,SSE,161,3.0,6.0,61,0.00,,BKN220,0.00,VWS V14.00,2013-05-02 14:26:00,
2013-05-02 10:30:00,68.6,56.4,30.14,South,188,5.0,5.0,65,0.00,,OVC120,0.00,VWS V14.00,2013-05-02 14:30:00,
2013-05-02 10:31:00,73.1,58.4,30.13,East,94,2.0,3.0,60,0.00,,BKN220,0.00,VWS V14.00,2013-05-02 14:31:00,
2013-05-02 10:37:00,73.4,57.7,30.13,SE,130,0.0,5.0,58,0.00,,BKN220,0.00,VWS V14.00,2013-05-02 14:37:00,
2013-05-02 10:42:00,73.9,57.7,30.13,SE,132,0.0,5.0,57,0.00,,BKN220,0.00,VWS V14.00,2013-05-02 14:42:00,
2013-05-02 10:47:00,74.4,58.7,30.13,SSE,150,0.0,5.0,58,0.00,,BKN220,0.00,VWS V14.00,2013-05-02 14:47:00,
2013-05-02 10:52:00,74.6,58.4,30.13,South,170,6.0,6.0,57,0.00,,BKN220,0.00,VWS V14.00,2013-05-02 14:52:00,
2013-05-02 10:57:00,74.6,58.9,30.13,SE,132,2.0,7.0,58,0.00,,BKN220,0.00,VWS V14.00,2013-05-02 14:57:00,
2013-05-02 11:00:00,70.3,57.1,30.14,South,174,0.0,8.0,63,0.00,,OVC120,0.00,VWS V14.00,2013-05-02 15:00:00,
2013-05-02 11:02:00,74.9,58.7,30.13,ESE,112,0.0,3.0,57,0.00,,SCT220,0.00,VWS V14.00,2013-05-02 15:02:00,
2013-05-02 11:07:00,75.3,58.5,30.13,SSE,155,0.0,7.0,56,0.00,,SCT220,0.00,VWS V14.00,2013-05-02 15:07:00,
2013-05-02 11:12:00,75.6,58.3,30.12,SE,133,0.0,7.0,55,0.00,,SCT220,0.00,VWS V14.00,2013-05-02 15:12:00,
2013-05-02 11:17:00,75.8,59.5,30.12,SE,133,3.0,8.0,57,0.00,,SCT220,0.00,VWS V14.00,2013-05-02 15:17:00,
2013-05-02 11:22:00,76.2,58.9,30.12,SE,140,3.0,8.0,55,0.00,,SCT220,0.00,VWS V14.00,2013-05-02 15:22:00,
2013-05-02 11:27:00,76.6,59.2,30.12,SE,130,1.0,8.0,55,0.00,,SCT220,0.00,VWS V14.00,2013-05-02 15:27:00,
2013-05-02 11:30:00,73.0,58.3,30.13,East,97,2.0,6.0,60,0.00,,OVC120,0.00,VWS V14.00,2013-05-02 15:30:00,
2013-05-02 11:32:00,77.1,59.2,30.12,SE,128,0.0,3.0,54,0.00,,SCT220,0.00,VWS V14.00,2013-05-02 15:32:00,
2013-05-02 11:37:00,77.6,58.6,30.12,East,91,0.0,8.0,52,0.00,,SCT220,0.00,VWS V14.00,2013-05-02 15:37:00,
2013-05-02 11:42:00,77.9,59.4,30.12,ESE,123,1.0,8.0,53,0.00,,SCT220,0.00,VWS V14.00,2013-05-02 15:42:00,
2013-05-02 11:47:00,78.0,58.4,30.11,SE,146,0.0,8.0,51,0.00,,SCT220,0.00,VWS V14.00,2013-05-02 15:47:00,
2013-05-02 11:53:00,78.3,57.6,30.11,ESE,119,0.0,8.0,49,0.00,,SCT220,0.00,VWS V14.00,2013-05-02 15:53:00,
2013-05-02 11:58:00,78.6,59.0,30.11,South,181,5.0,8.0,51,0.00,,SCT220,0.00,VWS V14.00,2013-05-02 15:58:00,
2013-05-02 12:00:00,74.8,58.6,30.13,SE,128,0.0,7.0,57,0.00,,OVC120,0.00,VWS V14.00,2013-05-02 16:00:00,
2013-05-02 12:03:00,78.4,58.8,30.11,South,175,0.0,7.0,51,0.00,,FEW220,0.00,VWS V14.00,2013-05-02 16:03:00,
2013-05-02 12:08:00,78.7,59.1,30.11,ENE,71,0.0,7.0,51,0.00,,FEW220,0.00,VWS V14.00,2013-05-02 16:08:00,
2013-05-02 12:13:00,79.2,59.0,30.11,ESE,122,4.0,8.0,50,0.00,,FEW220,0.00,VWS V14.00,2013-05-02 16:13:00,
2013-05-02 12:18:00,79.3,58.5,30.11,SSE,155,0.0,8.0,49,0.00,,FEW220,0.00,VWS V14.00,2013-05-02 16:18:00,
2013-05-02 12:23:00,79.2,59.0,30.11,South,171,6.0,9.0,50,0.00,,FEW220,0.00,VWS V14.00,2013-05-02 16:23:00,
2013-05-02 12:28:00,79.3,59.1,30.11,SE,145,2.0,9.0,50,0.00,,FEW220,0.00,VWS V14.00,2013-05-02 16:28:00,
2013-05-02 12:30:00,76.8,59.4,30.12,SE,126,0.0,8.0,55,0.00,,OVC120,0.00,VWS V14.00,2013-05-02 16:30:00,
2013-05-02 12:33:00,79.3,57.9,30.10,ENE,69,0.0,7.0,48,0.00,,FEW220,0.00,VWS V14.00,2013-05-02 16:33:00,
2013-05-02 12:38:00,79.3,59.1,30.10,East,99,5.0,7.0,50,0.00,,FEW220,0.00,VWS V14.00,2013-05-02 16:38:00,
2013-05-02 12:43:00,79.0,58.8,30.10,SSW,196,0.0,10.0,50,0.00,,FEW220,0.00,VWS V14.00,2013-05-02 16:43:00,
2013-05-02 12:48:00,79.3,59.6,30.10,South,191,1.0,10.0,51,0.00,,FEW220,0.00,VWS V14.00,2013-05-02 16:48:00,
2013-05-02 12:54:00,79.5,58.7,30.10,ESE,103,3.0,10.0,49,0.00,,FEW220,0.00,VWS V14.00,2013-05-02 16:54:00,
2013-05-02 12:59:00,80.0,60.3,30.09,NE,35,5.0,10.0,51,0.00,,FEW220,0.00,VWS V14.00,2013-05-02 16:59:00,
2013-05-02 13:00:00,78.7,58.5,30.11,SSE,162,1.0,8.0,50,0.00,,OVC120,0.00,VWS V14.00,2013-05-02 17:00:00,
2013-05-02 13:04:00,80.2,59.9,30.09,SE,145,3.0,8.0,50,0.00,,FEW220,0.00,VWS V14.00,2013-05-02 17:04:00,
2013-05-02 13:09:00,79.8,58.4,30.09,SSW,213,4.0,8.0,48,0.00,,FEW220,0.00,VWS V14.00,2013-05-02 17:09:00,
2013-05-02 13:14:00,80.0,60.8,30.09,SSE,168,7.0,8.0,52,0.00,,FEW220,0.00,VWS V14.00,2013-05-02 17:14:00,
2013-05-02 13:19:00,79.9,59.0,30.09,NE,42,3.0,9.0,49,0.00,,FEW220,0.00,VWS V14.00,2013-05-02 17:19:00,
2013-05-02 13:24:00,80.2,59.3,30.09,SSE,165,4.0,9.0,49,0.00,,FEW220,0.00,VWS V14.00,2013-05-02 17:24:00,
2013-05-02 13:29:00,80.1,61.4,30.08,South,187,7.0,14.0,53,0.00,,FEW220,0.00,VWS V14.00,2013-05-02 17:29:00,
2013-05-02 13:30:00,79.3,59.1,30.11,SE,127,1.0,9.0,50,0.00,,OVC120,0.00,VWS V14.00,2013-05-02 17:30:00,
2013-05-02 13:34:00,79.9,60.2,30.08,SSE,153,5.0,8.0,51,0.00,,FEW220,0.00,VWS V14.00,2013-05-02 17:34:00,
2013-05-02 13:39:00,80.4,58.9,30.08,South,170,4.0,8.0,48,0.00,,FEW220,0.00,VWS V14.00,2013-05-02 17:39:00,
2013-05-02 13:45:00,80.6,60.3,30.08,SE,126,0.0,8.0,50,0.00,,FEW220,0.00,VWS V14.00,2013-05-02 17:45:00,
2013-05-02 13:50:00,80.8,59.9,30.08,ESE,111,3.0,8.0,49,0.00,,FEW220,0.00,VWS V14.00,2013-05-02 17:50:00,
2013-05-02 13:55:00,80.5,59.0,30.08,East,79,6.0,10.0,48,0.00,,FEW220,0.00,VWS V14.00,2013-05-02 17:55:00,
2013-05-02 14:00:00,80.1,58.1,30.08,South,178,2.0,11.0,47,0.00,,SCT220,0.00,VWS V14.00,2013-05-02 18:00:00,
2013-05-02 14:05:00,80.2,58.8,30.07,SSW,200,6.0,9.0,48,0.00,,SCT220,0.00,VWS V14.00,2013-05-02 18:05:00,
2013-05-02 14:10:00,80.5,59.0,30.07,SE,138,0.0,9.0,48,0.00,,SCT220,0.00,VWS V14.00,2013-05-02 18:10:00,
2013-05-02 14:15:00,80.7,59.2,30.07,South,176,0.0,9.0,48,0.00,,SCT220,0.00,VWS V14.00,2013-05-02 18:15:00,
2013-05-02 14:20:00,80.8,59.9,30.07,East,82,0.0,9.0,49,0.00,,SCT220,0.00,VWS V14.00,2013-05-02 18:20:00,
2013-05-02 14:25:00,81.0,58.9,30.07,ESE,111,1.0,10.0,47,0.00,,SCT220,0.00,VWS V14.00,2013-05-02 18:25:00,
2013-05-02 14:30:00,81.0,58.3,30.06,SE,142,0.0,1.0,46,0.00,,SCT220,0.00,VWS V14.00,2013-05-02 18:30:00,
2013-05-02 14:35:00,81.2,60.2,30.06,SSW,205,1.0,8.0,49,0.00,,SCT220,0.00,VWS V14.00,2013-05-02 18:35:00,
2013-05-02 14:40:00,81.5,59.3,30.06,ESE,103,1.0,8.0,47,0.00,,SCT220,0.00,VWS V14.00,2013-05-02 18:40:00,
2013-05-02 14:45:00,81.8,60.8,30.06,South,178,6.0,10.0,49,0.00,,SCT220,0.00,VWS V14.00,2013-05-02 18:45:00,
2013-05-02 14:50:00,81.6,59.4,30.06,ESE,115,1.0,10.0,47,0.00,,SCT220,0.00,VWS V14.00,2013-05-02 18:50:00,
2013-05-02 14:55:00,81.3,58.6,30.06,SE,134,2.0,10.0,46,0.00,,SCT220,0.00,VWS V14.00,2013-05-02 18:55:00,
2013-05-02 15:00:00,80.1,58.1,30.08,South,178,2.0,11.0,47,0.00,,OVC120,0.00,VWS V14.00,2013-05-02 19:00:00,
2013-05-02 15:01:00,81.2,58.5,30.06,SE,146,0.0,6.0,46,0.00,,BKN220,0.00,VWS V14.00,2013-05-02 19:01:00,
2013-05-02 15:06:00,81.3,59.2,30.06,SSE,167,6.0,8.0,47,0.00,,BKN220,0.00,VWS V14.00,2013-05-02 19:06:00,
2013-05-02 15:11:00,81.4,57.4,30.06,SSE,154,6.0,11.0,44,0.00,,BKN220,0.00,VWS V14.00,2013-05-02 19:11:00,
2013-05-02 15:16:00,80.9,58.2,30.06,ESE,118,3.0,11.0,46,0.00,,BKN220,0.00,VWS V14.00,2013-05-02 19:16:00,
2013-05-02 15:21:00,81.3,59.2,30.05,SE,130,3.0,11.0,47,0.00,,BKN220,0.00,VWS V14.00,2013-05-02 19:21:00,
2013-05-02 15:26:00,81.4,59.3,30.05,SSE,148,3.0,11.0,47,0.00,,BKN220,0.00,VWS V14.00,2013-05-02 19:26:00,
2013-05-02 15:30:00,81.0,58.3,30.07,SE,143,1.0,10.0,46,0.00,,OVC120,0.00,VWS V14.00,2013-05-02 19:30:00,
2013-05-02 15:31:00,81.4,59.3,30.05,ESE,113,4.0,8.0,47,0.00,,BKN220,0.00,VWS V14.00,2013-05-02 19:31:00,
2013-05-02 15:36:00,81.2,58.5,30.05,NNE,19,0.0,8.0,46,0.00,,BKN220,0.00,VWS V14.00,2013-05-02 19:36:00,
2013-05-02 15:41:00,81.1,58.4,30.05,South,169,1.0,8.0,46,0.00,,BKN220,0.00,VWS V14.00,2013-05-02 19:41:00,
2013-05-02 15:46:00,80.7,59.2,30.04,South,169,1.0,9.0,48,0.00,,BKN220,0.00,VWS V14.00,2013-05-02 19:46:00,
2013-05-02 15:51:00,80.6,59.1,30.04,South,169,0.0,9.0,48,0.00,,BKN220,0.00,VWS V14.00,2013-05-02 19:51:00,
2013-05-02 15:57:00,81.4,58.0,30.04,East,101,5.0,11.0,45,0.00,,BKN220,0.00,VWS V14.00,2013-05-02 19:57:00,
2013-05-02 16:00:00,81.2,59.1,30.06,SE,130,0.0,10.0,47,0.00,,OVC120,0.00,VWS V14.00,2013-05-02 20:00:00,
2013-05-02 16:02:00,80.9,58.8,30.04,SE,136,0.0,8.0,47,0.00,,BKN220,0.00,VWS V14.00,2013-05-02 20:02:00,
2013-05-02 16:07:00,80.3,58.8,30.04,SSE,160,1.0,8.0,48,0.00,,BKN220,0.00,VWS V14.00,2013-05-02 20:07:00,
2013-05-02 16:12:00,79.9,58.5,30.03,ESE,110,1.0,12.0,48,0.00,,BKN220,0.00,VWS V14.00,2013-05-02 20:12:00,
2013-05-02 16:17:00,79.5,57.5,30.03,SSE,152,2.0,12.0,47,0.00,,BKN220,0.00,VWS V14.00,2013-05-02 20:17:00,
2013-05-02 16:22:00,79.4,58.0,30.03,ESE,106,2.0,12.0,48,0.00,,BKN220,0.00,VWS V14.00,2013-05-02 20:22:00,
2013-05-02 16:27:00,80.0,58.6,30.02,SE,134,0.0,12.0,48,0.00,,BKN220,0.00,VWS V14.00,2013-05-02 20:27:00,
2013-05-02 16:30:00,81.3,58.6,30.05,SE,126,0.0,11.0,46,0.00,,OVC120,0.00,VWS V14.00,2013-05-02 20:30:00,
2013-05-02 16:32:00,79.6,58.2,30.03,South,171,3.0,6.0,48,0.00,,BKN220,0.00,VWS V14.00,2013-05-02 20:32:00,
2013-05-02 16:37:00,79.0,58.8,30.02,SSW,213,6.0,9.0,50,0.00,,BKN220,0.00,VWS V14.00,2013-05-02 20:37:00,
2013-05-02 16:42:00,78.7,58.0,30.02,South,184,4.0,9.0,49,0.00,,BKN220,0.00,VWS V14.00,2013-05-02 20:42:00,
2013-05-02 16:48:00,78.7,58.0,30.02,SE,145,1.0,9.0,49,0.00,,BKN220,0.00,VWS V14.00,2013-05-02 20:48:00,
2013-05-02 16:53:00,79.6,58.8,30.02,South,188,2.0,9.0,49,0.00,,BKN220,0.00,VWS V14.00,2013-05-02 20:53:00,
2013-05-02 16:58:00,79.8,57.8,30.02,SE,132,2.0,9.0,47,0.00,,BKN220,0.00,VWS V14.00,2013-05-02 20:58:00,
2013-05-02 17:00:00,81.0,57.7,30.04,SSE,149,8.0,11.0,45,0.00,,OVC120,0.00,VWS V14.00,2013-05-02 21:00:00,
2013-05-02 17:03:00,79.3,57.3,30.02,SSW,209,5.0,8.0,47,0.00,,BKN220,0.00,VWS V14.00,2013-05-02 21:03:00,
2013-05-02 17:08:00,79.1,58.3,30.01,South,180,6.0,8.0,49,0.00,,BKN220,0.00,VWS V14.00,2013-05-02 21:08:00,
2013-05-02 17:13:00,79.2,57.8,30.01,SW,219,11.0,13.0,48,0.00,,BKN220,0.00,VWS V14.00,2013-05-02 21:13:00,
2013-05-02 17:18:00,80.2,58.2,30.01,SSE,152,9.0,13.0,47,0.00,,BKN220,0.00,VWS V14.00,2013-05-02 21:18:00,
2013-05-02 17:23:00,79.9,57.9,30.01,SSW,194,3.0,13.0,47,0.00,,BKN220,0.00,VWS V14.00,2013-05-02 21:23:00,
2013-05-02 17:28:00,80.2,57.6,30.01,SE,145,7.0,13.0,46,0.00,,BKN220,0.00,VWS V14.00,2013-05-02 21:28:00,
2013-05-02 17:30:00,79.9,57.9,30.02,SSE,167,5.0,12.0,47,0.00,,OVC120,0.00,VWS V14.00,2013-05-02 21:30:00,
2013-05-02 17:33:00,79.6,58.2,30.01,SSE,165,0.0,9.0,48,0.00,,BKN220,0.00,VWS V14.00,2013-05-02 21:33:00,
2013-05-02 17:38:00,79.2,56.7,30.01,SSE,164,2.0,9.0,46,0.00,,BKN220,0.00,VWS V14.00,2013-05-02 21:38:00,
2013-05-02 17:43:00,78.7,56.8,30.01,South,171,7.0,10.0,47,0.00,,BKN220,0.00,VWS V14.00,2013-05-02 21:43:00,
2013-05-02 17:48:00,78.5,57.2,30.01,SSE,164,5.0,10.0,48,0.00,,BKN220,0.00,VWS V14.00,2013-05-02 21:48:00,
2013-05-02 17:54:00,78.3,57.0,30.00,South,186,5.0,13.0,48,0.00,,BKN220,0.00,VWS V14.00,2013-05-02 21:54:00,
2013-05-02 17:59:00,78.1,58.0,30.01,South,178,5.0,13.0,50,0.00,,BKN220,0.00,VWS V14.00,2013-05-02 21:59:00,
2013-05-02 18:00:00,79.7,58.3,30.02,South,184,4.0,9.0,48,0.00,,OVC120,0.00,VWS V14.00,2013-05-02 22:00:00,
2013-05-02 18:04:00,78.0,58.4,30.01,South,184,7.0,9.0,51,0.00,,BKN220,0.00,VWS V14.00,2013-05-02 22:04:00,
2013-05-02 18:09:00,77.9,57.2,30.01,SSW,199,8.0,11.0,49,0.00,,BKN220,0.00,VWS V14.00,2013-05-02 22:09:00,
2013-05-02 18:14:00,77.8,57.1,30.00,SSW,210,3.0,11.0,49,0.00,,BKN220,0.00,VWS V14.00,2013-05-02 22:14:00,
2013-05-02 18:19:00,77.9,57.2,30.01,South,186,4.0,11.0,49,0.00,,BKN220,0.00,VWS V14.00,2013-05-02 22:19:00,
2013-05-02 18:24:00,77.9,58.9,30.01,South,188,1.0,11.0,52,0.00,,BKN220,0.00,VWS V14.00,2013-05-02 22:24:00,
2013-05-02 18:29:00,77.8,58.8,30.01,SSW,205,1.0,11.0,52,0.00,,BKN220,0.00,VWS V14.00,2013-05-02 22:29:00,
2013-05-02 18:30:00,80.0,57.4,30.01,South,175,9.0,13.0,46,0.00,,OVC120,0.00,VWS V14.00,2013-05-02 22:30:00,
2013-05-02 18:34:00,77.8,60.4,30.00,WSW,250,0.0,3.0,55,0.00,,BKN220,0.00,VWS V14.00,2013-05-02 22:34:00,
2013-05-02 18:39:00,77.5,60.6,30.00,West,259,0.0,3.0,56,0.00,,BKN220,0.00,VWS V14.00,2013-05-02 22:39:00,
2013-05-02 18:44:00,77.0,59.6,30.01,WNW,284,0.0,3.0,55,0.00,,BKN220,0.00,VWS V14.00,2013-05-02 22:44:00,
2013-05-02 18:49:00,76.2,59.4,30.01,ENE,78,1.0,9.0,56,0.00,,BKN220,0.00,VWS V14.00,2013-05-02 22:49:00,
2013-05-02 18:55:00,75.3,59.0,30.01,SW,228,3.0,9.0,57,0.00,,BKN220,0.00,VWS V14.00,2013-05-02 22:55:00,
2013-05-02 19:00:00,74.3,59.1,30.01,SW,215,2.0,9.0,59,0.00,,BKN220,0.00,VWS V14.00,2013-05-02 23:00:00,
2013-05-02 19:05:00,73.7,59.0,30.01,WNW,296,3.0,5.0,60,0.00,,BKN220,0.00,VWS V14.00,2013-05-02 23:05:00,
2013-05-02 19:10:00,73.2,59.0,30.01,WNW,287,3.0,5.0,61,0.00,,BKN220,0.00,VWS V14.00,2013-05-02 23:10:00,
2013-05-02 19:15:00,72.9,59.6,30.01,WNW,299,0.0,8.0,63,0.00,,BKN220,0.00,VWS V14.00,2013-05-02 23:15:00,
2013-05-02 19:20:00,72.5,59.6,30.01,WNW,299,0.0,8.0,64,0.00,,BKN220,0.00,VWS V14.00,2013-05-02 23:20:00,
2013-05-02 19:25:00,72.4,59.5,30.01,WNW,299,0.0,8.0,64,0.00,,BKN220,0.00,VWS V14.00,2013-05-02 23:25:00,
2013-05-02 19:30:00,72.1,59.7,30.02,SW,233,2.0,2.0,65,0.00,,BKN220,0.00,VWS V14.00,2013-05-02 23:30:00,
2013-05-02 19:35:00,71.9,59.9,30.02,SW,233,0.0,4.0,66,0.00,,BKN220,0.00,VWS V14.00,2013-05-02 23:35:00,
2013-05-02 19:40:00,71.7,59.3,30.02,SW,234,0.0,4.0,65,0.00,,BKN220,0.00,VWS V14.00,2013-05-02 23:40:00,
2013-05-02 19:46:00,71.6,59.7,30.02,WSW,241,1.0,4.0,66,0.00,,BKN220,0.00,VWS V14.00,2013-05-02 23:46:00,
2013-05-02 19:51:00,71.3,59.8,30.02,WNW,290,0.0,4.0,67,0.00,,BKN220,0.00,VWS V14.00,2013-05-02 23:51:00,
2013-05-02 19:56:00,71.2,59.7,30.02,WNW,290,0.0,4.0,67,0.00,,BKN220,0.00,VWS V14.00,2013-05-02 23:56:00,
2013-05-02 20:00:00,74.3,59.1,30.01,SW,215,2.0,9.0,59,0.00,,OVC120,0.00,VWS V14.00,2013-05-03 00:00:00,
2013-05-02 20:01:00,71.0,59.5,30.02,NNE,13,0.0,0.0,67,0.00,,-RA,0.00,VWS V14.00,2013-05-03 00:01:00,
2013-05-02 20:06:00,70.6,59.1,30.02,North,351,4.0,5.0,67,0.00,,-RA,0.00,VWS V14.00,2013-05-03 00:06:00,
2013-05-02 20:11:00,70.1,58.7,30.02,North,351,0.0,5.0,67,0.00,,-RA,0.00,VWS V14.00,2013-05-03 00:11:00,
2013-05-02 20:16:00,69.6,58.6,30.02,North,350,0.0,5.0,68,0.00,,-RA,0.00,VWS V14.00,2013-05-03 00:16:00,
2013-05-02 20:21:00,69.1,58.1,30.02,North,355,2.0,5.0,68,0.00,,-RA,0.00,VWS V14.00,2013-05-03 00:21:00,
2013-05-02 20:26:00,68.7,57.7,30.02,North,5,1.0,5.0,68,0.00,,-RA,0.00,VWS V14.00,2013-05-03 00:26:00,
2013-05-02 20:30:00,72.2,59.8,30.02,WSW,237,0.0,8.0,65,0.00,,OVC120,0.00,VWS V14.00,2013-05-03 00:30:00,
2013-05-02 20:31:00,68.3,57.8,30.02,North,360,0.0,0.0,69,0.00,,OVC200,0.00,VWS V14.00,2013-05-03 00:31:00,
2013-05-02 20:36:00,68.1,57.6,30.03,North,5,0.0,1.0,69,0.00,,OVC200,0.00,VWS V14.00,2013-05-03 00:36:00,
2013-05-02 20:41:00,67.9,57.8,30.02,North,5,0.0,1.0,70,0.00,,OVC200,0.00,VWS V14.00,2013-05-03 00:41:00,
2013-05-02 20:46:00,67.7,58.0,30.02,North,5,0.0,1.0,71,0.00,,OVC200,0.00,VWS V14.00,2013-05-03 00:46:00,
2013-05-02 20:51:00,67.5,58.2,30.03,North,5,0.0,2.0,72,0.00,,OVC200,0.00,VWS V14.00,2013-05-03 00:51:00,
2013-05-02 20:56:00,67.3,58.4,30.03,North,360,0.0,2.0,73,0.00,,OVC200,0.00,VWS V14.00,2013-05-03 00:56:00,
2013-05-02 21:00:00,71.0,59.5,30.02,NNE,13,0.0,5.0,67,0.00,,OVC120,0.00,VWS V14.00,2013-05-03 01:00:00,
2013-05-02 21:01:00,67.2,58.6,30.02,North,5,0.0,1.0,74,0.00,,OVC200,0.00,VWS V14.00,2013-05-03 01:01:00,
2013-05-02 21:06:00,67.0,58.5,30.02,North,360,0.0,2.0,74,0.00,,OVC200,0.00,VWS V14.00,2013-05-03 01:06:00,
2013-05-02 21:12:00,66.8,58.6,30.03,North,360,0.0,2.0,75,0.00,,OVC200,0.00,VWS V14.00,2013-05-03 01:12:00,
2013-05-02 21:17:00,66.7,58.9,30.03,North,5,0.0,2.0,76,0.00,,OVC200,0.00,VWS V14.00,2013-05-03 01:17:00,
2013-05-02 21:22:00,66.5,59.1,30.03,North,5,1.0,2.0,77,0.00,,OVC200,0.00,VWS V14.00,2013-05-03 01:22:00,
2013-05-02 21:27:00,66.4,59.0,30.03,North,5,0.0,2.0,77,0.00,,OVC200,0.00,VWS V14.00,2013-05-03 01:27:00,
2013-05-02 21:30:00,68.4,57.4,30.02,North,360,0.0,5.0,68,0.00,,OVC120,0.00,VWS V14.00,2013-05-03 01:30:00,
2013-05-02 21:32:00,66.3,59.2,30.04,North,5,0.0,1.0,78,0.00,,OVC200,0.00,VWS V14.00,2013-05-03 01:32:00,
2013-05-02 21:37:00,66.3,59.2,30.04,North,5,0.0,1.0,78,0.00,,OVC200,0.00,VWS V14.00,2013-05-03 01:37:00,
2013-05-02 21:42:00,66.2,59.5,30.04,North,5,0.0,1.0,79,0.00,,OVC200,0.00,VWS V14.00,2013-05-03 01:42:00,
2013-05-02 21:47:00,66.0,59.3,30.04,North,5,0.0,1.0,79,0.00,,OVC200,0.00,VWS V14.00,2013-05-03 01:47:00,
2013-05-02 21:52:00,65.9,59.6,30.04,North,360,0.0,1.0,80,0.00,,OVC200,0.00,VWS V14.00,2013-05-03 01:52:00,
2013-05-02 21:58:00,65.8,59.5,30.04,North,5,0.0,1.0,80,0.00,,OVC200,0.00,VWS V14.00,2013-05-03 01:58:00,
2013-05-02 22:00:00,67.2,58.3,30.03,North,5,0.0,2.0,73,0.00,,OVC120,0.00,VWS V14.00,2013-05-03 02:00:00,
2013-05-02 22:03:00,65.6,59.6,30.04,North,360,0.0,0.0,81,0.00,,OVC200,0.00,VWS V14.00,2013-05-03 02:03:00,
2013-05-02 22:08:00,65.4,59.4,30.04,North,5,0.0,0.0,81,0.00,,OVC200,0.00,VWS V14.00,2013-05-03 02:08:00,
2013-05-02 22:13:00,65.2,59.2,30.04,North,5,0.0,0.0,81,0.00,,OVC200,0.00,VWS V14.00,2013-05-03 02:13:00,
2013-05-02 22:18:00,64.9,59.3,30.04,North,5,0.0,0.0,82,0.00,,OVC200,0.00,VWS V14.00,2013-05-03 02:18:00,
2013-05-02 22:23:00,64.7,59.1,30.04,North,5,0.0,0.0,82,0.00,,OVC200,0.00,VWS V14.00,2013-05-03 02:23:00,
2013-05-02 22:28:00,64.4,59.1,30.04,North,5,0.0,0.0,83,0.00,,OVC200,0.00,VWS V14.00,2013-05-03 02:28:00,
2013-05-02 22:30:00,66.4,59.0,30.03,North,360,0.0,2.0,77,0.00,,OVC120,0.00,VWS V14.00,2013-05-03 02:30:00,
2013-05-02 22:33:00,64.2,58.9,30.04,North,5,0.0,0.0,83,0.00,,OVC200,0.00,VWS V14.00,2013-05-03 02:33:00,
2013-05-02 22:38:00,64.1,59.2,30.04,North,5,0.0,1.0,84,0.00,,OVC200,0.00,VWS V14.00,2013-05-03 02:38:00,
2013-05-02 22:44:00,63.9,59.3,30.05,North,5,0.0,1.0,85,0.00,,OVC200,0.00,VWS V14.00,2013-05-03 02:44:00,
2013-05-02 22:49:00,63.7,58.5,30.05,North,11,0.0,4.0,83,0.00,,OVC200,0.00,VWS V14.00,2013-05-03 02:49:00,
2013-05-02 22:54:00,64.2,58.6,30.05,NW,311,0.0,6.0,82,0.00,,OVC200,0.00,VWS V14.00,2013-05-03 02:54:00,
2013-05-02 22:59:00,64.4,58.8,30.05,NW,311,0.0,6.0,82,0.00,,OVC200,0.00,VWS V14.00,2013-05-03 02:59:00,
2013-05-02 23:00:00,65.7,59.4,30.04,North,360,0.0,1.0,80,0.00,,OVC120,0.00,VWS V14.00,2013-05-03 03:00:00,
2013-05-02 23:04:00,64.2,58.3,30.05,NW,311,0.0,2.0,81,0.00,,BKN075,0.00,VWS V14.00,2013-05-03 03:04:00,
2013-05-02 23:09:00,64.0,58.7,30.05,NW,311,0.0,2.0,83,0.00,,BKN075,0.00,VWS V14.00,2013-05-03 03:09:00,
2013-05-02 23:14:00,63.6,58.7,30.05,NW,311,0.0,2.0,84,0.00,,BKN075,0.00,VWS V14.00,2013-05-03 03:14:00,
2013-05-02 23:19:00,63.2,58.3,30.05,NW,311,0.0,2.0,84,0.00,,BKN075,0.00,VWS V14.00,2013-05-03 03:19:00,
2013-05-02 23:24:00,62.7,58.1,30.05,NW,311,1.0,2.0,85,0.00,,BKN075,0.00,VWS V14.00,2013-05-03 03:24:00,
2013-05-02 23:30:00,62.4,58.2,30.05,NW,311,0.0,2.0,86,0.00,,BKN075,0.00,VWS V14.00,2013-05-03 03:30:00,
2013-05-02 23:35:00,62.1,58.2,30.05,NW,311,0.0,1.0,87,0.00,,BKN075,0.00,VWS V14.00,2013-05-03 03:35:00,
2013-05-02 23:40:00,62.1,58.2,30.05,NW,311,0.0,1.0,87,0.00,,BKN075,0.00,VWS V14.00,2013-05-03 03:40:00,
2013-05-02 23:45:00,62.0,58.1,30.06,NW,310,0.0,1.0,87,0.00,,BKN075,0.00,VWS V14.00,2013-05-03 03:45:00,
2013-05-02 23:50:00,61.9,58.3,30.06,NW,310,0.0,1.0,88,0.00,,BKN075,0.00,VWS V14.00,2013-05-03 03:50:00,
2013-05-02 23:55:00,61.9,58.0,30.06,NW,310,0.0,1.0,87,0.00,,BKN075,0.00,VWS V14.00,2013-05-03 03:55:00,